User: anonymous   Login
Location: Unspecified
(0.0000°N, 0.0000°E)
Time: 02:58:18
(UTC+00:00)
Language:

MERIDIAN 6 - Orbit

View from above orbital plane
View from above orbital plane
View from above satellite
View from above satellite

Ground track
Ground track

The orbit data is extracted from the following two-line orbital elements,

1 38995U 12063A   17232.32084468  .00000111  00000-0  10000-3 0  9993
2 38995  65.3712 328.1100 6898180 281.6470  14.0843  2.00612015 34906
Epoch (UTC): 20 August 2017 07:42:00
Eccentricity: 0.6898180
inclination: 65.3712°
perigee height: 1859 km
apogee height: 38496 km
right ascension of ascending node: 328.1100°
argument of perigee: 281.6470°
revolutions per day: 2.00612015
mean anomaly at epoch: 14.0843°
orbit number at epoch: 3490

The dashed part of the orbit path shows where the satellite is in the earth's shadow,  

DLR